Weather History for Centralia, IL

Change the Weather History Date:

Thursday, October 25, 2012

  Actual Average (KSLO) Record (KSLO)
Temperature  
Mean Temperature 63 °F -  
Max Temperature 80 °F 64 °F 84 °F (1963)
Min Temperature 46 °F 42 °F 27 °F (1968)
Degree Days  
Heating Degree Days 2    
Growing Degree Days 13 (Base 50)    
Moisture  
Dew Point 57 °F    
Average Humidity 72    
Maximum Humidity 90    
Minimum Humidity 55    
Precipitation  
Precipitation 0.30 in - - ()
Sea Level Pressure  
Sea Level Pressure 29.92 in    
Wind  
Wind Speed 12 mph (South)    
Max Wind Speed 23 mph    
Max Gust Speed 36 mph    
Visibility 10 miles    
Events Rain , Thunderstorm    
Averages and records for this station are not official NWS values.
T = Trace of Precipitation, MM = Missing Value Source: NWS Daily Summary

Daily Weather History Graph

Daily Weather History Graph

Search for Another Location

Airport:

Trip Planner

Search our weather history database for the weather conditions in past years. The results will help you decide how hot, cold, wet, or windy it might be!

Date:

Astronomy

Oct. 25, 2012 Rise Set
Actual Time 7:16 AM CDT 6:04 PM CDT
Civil Twilight 6:48 AM CDT 6:31 PM CDT
Nautical Twilight 6:17 AM CDT 7:02 PM CDT
Astronomical Twilight 5:47 AM CDT 7:33 PM CDT
Moon 3:48 PM CDT 3:15 AM CDT
Length of Visible Light 11h 42m
Length of Day
10h 48m
Waxing Gibbous, 84% of the Moon is Illuminated
Oct 25
Waxing Gibbous
Oct 29
Full
Nov 6
Last Quarter
Nov 13
New
Nov 20
First Quarter

Hourly Weather History & Observations

Time (CDT) Temp. Windchill Dew Point Humidity Pressure Visibility Wind Dir Wind Speed Gust Speed Precip Events Conditions
12:15 AM 66.2 °F - 59.0 °F 78% 29.93 in 10.0 mi SSE 6.9 mph - N/A   Clear
12:35 AM 67.1 °F - 59.4 °F 76% 29.92 in 10.0 mi SSE 6.9 mph - N/A   Clear
12:55 AM 66.7 °F - 59.2 °F 77% 29.92 in 10.0 mi SSE 9.2 mph - N/A   Clear
1:15 AM 66.6 °F - 59.2 °F 77% 29.92 in 10.0 mi SSE 9.2 mph - N/A   Clear
1:35 AM 67.5 °F - 59.2 °F 75% 29.92 in 10.0 mi SSE 9.2 mph - N/A   Clear
1:55 AM 66.6 °F - 59.0 °F 77% 29.91 in 10.0 mi SSE 10.4 mph - N/A   Clear
2:15 AM 66.2 °F - 59.0 °F 78% 29.91 in 10.0 mi SSE 9.2 mph - N/A   Clear
2:35 AM 66.7 °F - 59.0 °F 76% 29.91 in 10.0 mi SSE 13.8 mph 17.3 mph N/A   Clear
2:55 AM 66.2 °F - 59.0 °F 78% 29.91 in 10.0 mi SSE 10.4 mph - N/A   Clear
3:15 AM 65.7 °F - 59.0 °F 79% 29.90 in 10.0 mi South 11.5 mph - N/A   Clear
3:35 AM 65.7 °F - 58.8 °F 79% 29.90 in 10.0 mi South 11.5 mph - N/A   Clear
3:55 AM 65.5 °F - 59.0 °F 80% 29.90 in 10.0 mi SSE 11.5 mph - N/A   Clear
4:15 AM 65.3 °F - 58.8 °F 80% 29.89 in 10.0 mi SSE 9.2 mph - N/A   Clear
4:35 AM 65.1 °F - 58.6 °F 79% 29.90 in 10.0 mi SSE 9.2 mph - N/A   Clear
4:55 AM 64.4 °F - 58.5 °F 81% 29.91 in 10.0 mi SSE 6.9 mph - N/A   Clear
5:15 AM 64.2 °F - 58.5 °F 82% 29.91 in 10.0 mi South 8.1 mph - N/A   Clear
5:35 AM 64.0 °F - 58.5 °F 82% 29.91 in 10.0 mi South 10.4 mph - N/A   Clear
5:55 AM 63.9 °F - 58.3 °F 82% 29.91 in 10.0 mi South 9.2 mph - N/A   Clear
6:15 AM 63.9 °F - 58.1 °F 81% 29.92 in 10.0 mi South 9.2 mph - N/A   Clear
6:35 AM 64.4 °F - 59.0 °F 83% 29.93 in 10.0 mi South 8.1 mph - N/A   Clear
6:55 AM 63.5 °F - 57.7 °F 81% 29.93 in 10.0 mi SSE 8.1 mph - N/A   Scattered Clouds
7:15 AM 63.1 °F - 57.6 °F 82% 29.93 in 10.0 mi SSE 8.1 mph - N/A   Scattered Clouds
7:35 AM 63.5 °F - 57.6 °F 81% 29.92 in 10.0 mi SSE 11.5 mph 16.1 mph N/A   Clear
7:55 AM 64.2 °F - 57.7 °F 79% 29.93 in 10.0 mi SSE 11.5 mph - N/A   Clear
8:35 AM 66.6 °F - 58.1 °F 74% 29.93 in 10.0 mi SSE 10.4 mph - N/A   Clear
8:55 AM 67.8 °F - 58.5 °F 72% 29.92 in 10.0 mi South 13.8 mph - N/A   Scattered Clouds
9:15 AM 69.3 °F - 58.8 °F 69% 29.92 in 10.0 mi South 12.7 mph 18.4 mph N/A   Clear
9:35 AM 71.6 °F - 59.0 °F 64% 29.92 in 10.0 mi South 15.0 mph - N/A   Clear
9:55 AM 72.1 °F - 59.4 °F 64% 29.92 in 10.0 mi South 15.0 mph 21.9 mph N/A   Clear
10:15 AM 72.7 °F - 59.5 °F 63% 29.91 in 10.0 mi South 17.3 mph 24.2 mph N/A   Clear
10:35 AM 73.6 °F - 59.9 °F 62% 29.91 in 10.0 mi South 15.0 mph 26.5 mph N/A   Clear
10:55 AM 74.7 °F - 60.6 °F 61% 29.90 in 10.0 mi South 18.4 mph 24.2 mph N/A   Clear
11:15 AM 76.1 °F - 61.3 °F 60% 29.90 in 10.0 mi South 16.1 mph 21.9 mph N/A   Clear
11:35 AM 76.6 °F - 61.2 °F 59% 29.90 in 10.0 mi South 21.9 mph 28.8 mph N/A   Clear
11:55 AM 77.0 °F - 62.6 °F 61% 29.89 in 10.0 mi South 17.3 mph 26.5 mph N/A   Clear
12:15 PM 77.9 °F - 62.2 °F 58% 29.89 in 10.0 mi SSW 18.4 mph 26.5 mph N/A   Clear
12:35 PM 77.4 °F - 62.2 °F 59% 29.88 in 10.0 mi South 19.6 mph 25.3 mph N/A   Mostly Cloudy
12:55 PM 78.8 °F - 62.4 °F 57% 29.87 in 10.0 mi South 18.4 mph 25.3 mph N/A   Scattered Clouds
1:15 PM 79.3 °F - 63.0 °F 57% 29.85 in 10.0 mi South 16.1 mph 25.3 mph N/A   Clear
1:35 PM 80.1 °F - 63.0 °F 56% 29.85 in 10.0 mi South 20.7 mph 27.6 mph N/A   Scattered Clouds
1:55 PM 80.1 °F - 63.1 °F 56% 29.85 in 10.0 mi South 21.9 mph 28.8 mph N/A   Clear
2:15 PM 80.1 °F - 62.8 °F 55% 29.84 in 10.0 mi South 20.7 mph 32.2 mph N/A   Scattered Clouds
2:35 PM 78.8 °F - 62.6 °F 57% 29.84 in 10.0 mi South 23.0 mph 29.9 mph N/A   Mostly Cloudy
2:55 PM 78.8 °F - 62.6 °F 57% 29.83 in 10.0 mi South 23.0 mph 32.2 mph N/A   Mostly Cloudy
3:15 PM 78.3 °F - 62.6 °F 58% 29.84 in 10.0 mi SSW 20.7 mph 24.2 mph N/A   Mostly Cloudy
3:35 PM 77.9 °F - 62.6 °F 59% 29.84 in 10.0 mi South 19.6 mph - N/A   Overcast
3:55 PM 77.5 °F - 62.8 °F 60% 29.84 in 10.0 mi South 17.3 mph 25.3 mph N/A   Overcast
4:15 PM 77.5 °F - 62.6 °F 60% 29.84 in 10.0 mi South 16.1 mph - N/A   Overcast
4:35 PM 78.3 °F - 63.0 °F 59% 29.84 in 10.0 mi South 15.0 mph 23.0 mph N/A   Mostly Cloudy
4:55 PM 77.7 °F - 62.6 °F 60% 29.83 in 10.0 mi South 18.4 mph 23.0 mph N/A   Scattered Clouds
5:15 PM 77.9 °F - 62.2 °F 58% 29.83 in 10.0 mi South 19.6 mph 26.5 mph N/A   Scattered Clouds
5:35 PM 76.5 °F - 62.6 °F 62% 29.84 in 10.0 mi South 12.7 mph - N/A   Scattered Clouds
5:55 PM 75.9 °F - 62.6 °F 63% 29.85 in 10.0 mi South 11.5 mph 21.9 mph N/A   Clear
6:15 PM 75.7 °F - 62.2 °F 63% 29.85 in 10.0 mi South 12.7 mph 17.3 mph N/A   Clear
6:35 PM 75.4 °F - 62.1 °F 63% 29.85 in 10.0 mi South 13.8 mph - N/A   Scattered Clouds
6:55 PM 74.5 °F - 61.9 °F 65% 29.89 in 10.0 mi WNW 20.7 mph 26.5 mph N/A   Mostly Cloudy
7:15 PM 61.2 °F - 54.0 °F 77% 29.93 in 10.0 mi NW 16.1 mph 35.7 mph N/A   Overcast
7:35 PM 58.8 °F - 52.2 °F 79% 29.96 in 10.0 mi WNW 18.4 mph 26.5 mph N/A Thunderstorm Overcast
7:55 PM 55.9 °F - 50.9 °F 83% 29.98 in 10.0 mi West 16.1 mph 25.3 mph N/A Rain Rain
8:15 PM 54.0 °F - 50.2 °F 87% 29.99 in 10.0 mi NW 17.3 mph 23.0 mph N/A   Overcast
8:35 PM 53.1 °F - 47.8 °F 82% 30.00 in 10.0 mi WNW 13.8 mph - N/A   Overcast
8:55 PM 52.0 °F - 46.8 °F 82% 30.02 in 10.0 mi NW 16.1 mph 20.7 mph N/A   Overcast
9:15 PM 50.9 °F - 45.5 °F 82% 30.04 in 10.0 mi NW 19.6 mph 26.5 mph N/A   Light Drizzle
9:35 PM 48.6 °F - 44.4 °F 86% 30.05 in 7.0 mi NW 17.3 mph 25.3 mph 0.01 in Rain Light Rain
9:55 PM 46.8 °F - 43.7 °F 89% 30.08 in 5.0 mi WNW 16.1 mph 25.3 mph 0.08 in Rain Heavy Rain
10:15 PM 46.4 °F 39.5 °F 42.8 °F 87% 30.08 in 5.0 mi NW 17.3 mph 21.9 mph N/A Rain Rain
10:35 PM 46.4 °F 39.8 °F 43.7 °F 90% 30.08 in 7.0 mi NNW 16.1 mph 21.9 mph 0.08 in Rain Rain
10:55 PM 46.6 °F - 43.7 °F 90% 30.10 in 5.0 mi NW 11.5 mph 15.0 mph 0.11 in Rain Rain
11:15 PM 46.4 °F 40.1 °F 43.5 °F 90% 30.11 in 7.0 mi NW 15.0 mph 20.7 mph 0.01 in Rain Rain
11:35 PM 46.4 °F 41.5 °F 43.7 °F 90% 30.13 in 5.0 mi NW 10.4 mph - 0.04 in Rain Light Rain
11:55 PM 46.4 °F 40.7 °F 43.3 °F 89% 30.12 in 5.0 mi NNW 12.7 mph 18.4 mph 0.11 in Rain Rain